Location: D�pe
(52.6057°N, 8.1808°E)
Time: 06:53:01
(UTC+00:00)

Cosmos 2227 Rocket - Pass Details

Date: 29 October 2020
Orbit: 839 x 845 km, 71.0° (Epoch: 01 December)

Event Time Altitude Azimuth Distance (km) Brightness Sun altitude
Rises 16:49:14 0° 328° (NNW) 3,409 5.6 -7.7°
Reaches altitude 10° 16:51:41 10° 331° (NNW) 2,471 4.9 -8.0°
Maximum altitude 16:57:22 76° 57° (ENE) 873 2.2 -8.9°
Drops below altitude 10° 17:03:02 10° 144° (SE) 2,461 4.4 -9.7°
Sets 17:05:28 0° 146° (SE) 3,393 5.1 -10.1°
